OEDCL LOWL-LOAV

Flight info

Callsign OEDCL
Flight time N/A
Altitude 5000
Route VP177 DCT LOLH DCT VP200 DCT VP197 KL DT FR SEC S
Aircraft C172/L-SFG/C

Departure

Time 2026-04-28 18:48
Airport Linz-Hörsching Airport (LOWL)

Arrival

Time N/A
Airport Vöslau-Kottingbrunn Airfield (LOAV)
Time Latitude Longitude Altitude Speed Heading
2026-04-28 18:33 48.23832 14.18892 972 ft 0 kts 86°
2026-04-28 18:40 48.23833 14.18922 1067 ft 6 kts 98°
2026-04-28 18:40 48.23785 14.18946 973 ft 10 kts 177°
2026-04-28 18:41 48.23744 14.18861 974 ft 15 kts 269°
2026-04-28 18:41 48.23738 14.18674 981 ft 20 kts 265°
2026-04-28 18:41 48.23729 14.18432 975 ft 26 kts 266°
2026-04-28 18:41 48.23720 14.18167 975 ft 22 kts 268°
2026-04-28 18:42 48.23664 14.18014 974 ft 14 kts 197°
2026-04-28 18:42 48.23579 14.17977 973 ft 12 kts 195°
2026-04-28 18:42 48.23511 14.17949 975 ft 8 kts 194°
2026-04-28 18:42 48.23458 14.17928 976 ft 7 kts 195°
2026-04-28 18:43 48.23455 14.17926 976 ft 0 kts 196°
2026-04-28 18:46 48.23386 14.17898 977 ft 18 kts 196°
2026-04-28 18:47 48.23300 14.17919 981 ft 12 kts 111°
2026-04-28 18:47 48.23303 14.18183 978 ft 48 kts 87°
2026-04-28 18:47 48.23328 14.18884 1005 ft 81 kts 89°
2026-04-28 18:47 48.23368 14.19764 1208 ft 82 kts 87°
2026-04-28 18:48 48.23160 14.20523 1384 ft 86 kts 146°
2026-04-28 18:48 48.22586 14.20684 1595 ft 87 kts 170°
2026-04-28 18:48 48.22038 14.20750 1874 ft 76 kts 170°
2026-04-28 18:48 48.21489 14.20884 2078 ft 76 kts 167°
2026-04-28 18:49 48.20943 14.21040 2266 ft 82 kts 161°
2026-04-28 18:49 48.20565 14.21206 2344 ft 91 kts 159°
2026-04-28 18:49 48.19664 14.21645 2319 ft 109 kts 159°
2026-04-28 18:49 48.18924 14.22019 2319 ft 114 kts 158°
2026-04-28 18:50 48.18167 14.22409 2320 ft 115 kts 158°
2026-04-28 18:50 48.17427 14.22854 2310 ft 115 kts 149°
2026-04-28 18:50 48.16815 14.23608 2304 ft 114 kts 126°
2026-04-28 18:50 48.16457 14.24663 2306 ft 113 kts 114°
2026-04-28 18:51 48.16127 14.25742 2305 ft 114 kts 114°
2026-04-28 18:51 48.15786 14.26837 2301 ft 117 kts 115°
2026-04-28 18:51 48.15444 14.27947 2299 ft 118 kts 115°
2026-04-28 18:51 48.15106 14.29050 2294 ft 115 kts 114°
2026-04-28 18:52 48.14783 14.30115 2324 ft 111 kts 115°
2026-04-28 18:52 48.14472 14.31148 2391 ft 109 kts 115°
2026-04-28 18:52 48.14160 14.32204 2393 ft 113 kts 114°
2026-04-28 18:52 48.13848 14.33289 2392 ft 114 kts 112°
2026-04-28 18:53 48.13879 14.34449 2388 ft 116 kts 72°
2026-04-28 18:53 48.14176 14.35564 2396 ft 115 kts 72°
2026-04-28 18:53 48.14462 14.36691 2398 ft 117 kts 72°
2026-04-28 18:53 48.14641 14.37870 2396 ft 116 kts 84°
2026-04-28 18:54 48.14785 14.39064 2401 ft 118 kts 82°
2026-04-28 18:54 48.14946 14.40274 2398 ft 118 kts 81°
2026-04-28 18:54 48.15113 14.41476 2399 ft 118 kts 81°
2026-04-28 18:54 48.15283 14.42680 2396 ft 118 kts 82°
2026-04-28 18:55 48.15450 14.43863 2395 ft 118 kts 81°
2026-04-28 18:55 48.15565 14.44672 2395 ft 117 kts 81°
2026-04-28 18:55 48.15792 14.46273 2398 ft 117 kts 81°
2026-04-28 18:55 48.15961 14.47461 2396 ft 117 kts 81°
2026-04-28 18:56 48.16130 14.48656 2393 ft 117 kts 81°
2026-04-28 18:56 48.16298 14.49843 2393 ft 116 kts 80°
2026-04-28 18:56 48.16465 14.51022 2390 ft 115 kts 81°
2026-04-28 18:56 48.16631 14.52201 2395 ft 116 kts 80°
2026-04-28 18:57 48.16795 14.53364 2393 ft 116 kts 80°
2026-04-28 18:57 48.16965 14.54557 2388 ft 115 kts 81°
2026-04-28 18:57 48.17128 14.55716 2390 ft 115 kts 80°
2026-04-28 18:57 48.17293 14.56890 2391 ft 115 kts 80°
2026-04-28 18:58 48.17459 14.58068 2383 ft 115 kts 81°
2026-04-28 18:58 48.17624 14.59239 2392 ft 116 kts 81°
2026-04-28 18:58 48.17790 14.60424 2390 ft 116 kts 81°
2026-04-28 18:58 48.17957 14.61614 2389 ft 117 kts 81°
2026-04-28 18:59 48.18125 14.62802 2388 ft 116 kts 81°
2026-04-28 18:59 48.18290 14.63980 2398 ft 115 kts 80°
2026-04-28 18:59 48.18453 14.65138 2467 ft 111 kts 80°
2026-04-28 18:59 48.18606 14.66213 2674 ft 99 kts 81°
2026-04-28 19:00 48.18744 14.67170 2905 ft 89 kts 80°
2026-04-28 19:00 48.18869 14.68043 3124 ft 84 kts 81°
2026-04-28 19:00 48.18987 14.68873 3366 ft 77 kts 80°
2026-04-28 19:00 48.19092 14.69621 3581 ft 72 kts 81°
2026-04-28 19:01 48.19193 14.70333 3789 ft 68 kts 81°
2026-04-28 19:01 48.19287 14.70991 3990 ft 61 kts 81°
2026-04-28 19:01 48.19375 14.71618 4132 ft 63 kts 82°
2026-04-28 19:01 48.19466 14.72273 4267 ft 66 kts 81°
2026-04-28 19:02 48.19561 14.72962 4402 ft 69 kts 81°
2026-04-28 19:02 48.19662 14.73700 4519 ft 75 kts 81°
2026-04-28 19:02 48.19770 14.74486 4641 ft 79 kts 81°
2026-04-28 19:02 48.19884 14.75312 4761 ft 83 kts 81°
2026-04-28 19:03 48.20000 14.76155 4900 ft 82 kts 81°
2026-04-28 19:03 48.20118 14.77001 5030 ft 83 kts 81°
2026-04-28 19:03 48.20234 14.77843 5160 ft 84 kts 81°
2026-04-28 19:03 48.20354 14.78703 5294 ft 83 kts 81°
2026-04-28 19:04 48.20471 14.79540 5437 ft 81 kts 81°
2026-04-28 19:04 48.20585 14.80361 5585 ft 80 kts 81°
2026-04-28 19:04 48.20698 14.81175 5726 ft 78 kts 81°
2026-04-28 19:04 48.20809 14.81965 5871 ft 77 kts 79°
2026-04-28 19:05 48.20918 14.82753 6015 ft 77 kts 81°
2026-04-28 19:05 48.21027 14.83534 6159 ft 76 kts 80°
2026-04-28 19:05 48.21133 14.84303 6298 ft 75 kts 80°
2026-04-28 19:05 48.21238 14.85050 6444 ft 72 kts 80°
2026-04-28 19:06 48.21341 14.85797 6511 ft 80 kts 80°
2026-04-28 19:06 48.21419 14.86378 6531 ft 88 kts 80°
2026-04-28 19:06 48.21594 14.87687 6533 ft 104 kts 80°
2026-04-28 19:06 48.21743 14.88789 6531 ft 111 kts 79°
2026-04-28 19:07 48.21901 14.89946 6526 ft 115 kts 80°
2026-04-28 19:07 48.22064 14.91139 6531 ft 119 kts 79°
2026-04-28 19:07 48.22233 14.92368 6526 ft 121 kts 79°
2026-04-28 19:07 48.22404 14.93615 6527 ft 123 kts 80°
2026-04-28 19:08 48.22573 14.94852 6529 ft 123 kts 79°
2026-04-28 19:08 48.22746 14.96114 6525 ft 124 kts 79°
2026-04-28 19:08 48.22920 14.97379 6530 ft 124 kts 79°
2026-04-28 19:08 48.23093 14.98646 6532 ft 124 kts 80°
2026-04-28 19:09 48.23266 14.99913 6530 ft 124 kts 80°
2026-04-28 19:09 48.23440 15.01182 6530 ft 124 kts 80°
2026-04-28 19:09 48.23613 15.02450 6532 ft 124 kts 80°
2026-04-28 19:09 48.23787 15.03720 6535 ft 124 kts 80°
2026-04-28 19:10 48.23955 15.04966 6530 ft 120 kts 80°
2026-04-28 19:10 48.24121 15.06179 6525 ft 118 kts 80°
2026-04-28 19:10 48.24284 15.07378 6521 ft 117 kts 80°
2026-04-28 19:10 48.24446 15.08563 6515 ft 116 kts 79°
2026-04-28 19:11 48.24604 15.09728 6518 ft 115 kts 80°
2026-04-28 19:11 48.24764 15.10904 6518 ft 115 kts 80°
2026-04-28 19:11 48.24923 15.12077 6518 ft 115 kts 80°
2026-04-28 19:11 48.25082 15.13248 6520 ft 115 kts 80°
2026-04-28 19:12 48.25241 15.14419 6523 ft 114 kts 80°
2026-04-28 19:12 48.25400 15.15590 6522 ft 114 kts 80°
2026-04-28 19:12 48.25558 15.16760 6524 ft 114 kts 80°
2026-04-28 19:12 48.25716 15.17930 6521 ft 114 kts 80°
2026-04-28 19:13 48.25875 15.19100 6520 ft 115 kts 80°
2026-04-28 19:13 48.26145 15.20215 6524 ft 114 kts 62°
2026-04-28 19:13 48.26527 15.21262 6524 ft 115 kts 63°
2026-04-28 19:13 48.26906 15.22307 6505 ft 116 kts 63°
2026-04-28 19:14 48.27290 15.23367 6508 ft 115 kts 63°
2026-04-28 19:14 48.27670 15.24427 6510 ft 115 kts 63°
2026-04-28 19:14 48.28050 15.25485 6507 ft 115 kts 63°
2026-04-28 19:14 48.28410 15.26559 6503 ft 115 kts 63°
2026-04-28 19:15 48.28758 15.27641 6502 ft 115 kts 62°
2026-04-28 19:15 48.29103 15.28719 6505 ft 114 kts 63°
2026-04-28 19:15 48.29446 15.29798 6502 ft 114 kts 63°
2026-04-28 19:15 48.29672 15.30512 6501 ft 114 kts 63°
2026-04-28 19:16 48.30128 15.31943 6500 ft 113 kts 63°
2026-04-28 19:16 48.30463 15.32998 6505 ft 114 kts 63°
2026-04-28 19:16 48.30804 15.34076 6504 ft 114 kts 63°
2026-04-28 19:16 48.31149 15.35152 6506 ft 115 kts 63°
2026-04-28 19:17 48.31494 15.36232 6508 ft 115 kts 63°
2026-04-28 19:17 48.31840 15.37323 6510 ft 116 kts 63°
2026-04-28 19:17 48.32188 15.38422 6511 ft 117 kts 63°
2026-04-28 19:17 48.32538 15.39518 6512 ft 116 kts 62°
2026-04-28 19:18 48.32883 15.40605 6512 ft 115 kts 63°
2026-04-28 19:18 48.33228 15.41695 6509 ft 117 kts 63°
2026-04-28 19:18 48.33576 15.42804 6511 ft 117 kts 63°
2026-04-28 19:18 48.33922 15.43902 6504 ft 116 kts 63°
2026-04-28 19:19 48.34265 15.44997 6511 ft 116 kts 63°
2026-04-28 19:19 48.34605 15.46086 6508 ft 115 kts 62°
2026-04-28 19:19 48.34944 15.47173 6507 ft 116 kts 63°
2026-04-28 19:19 48.35287 15.48266 6506 ft 115 kts 63°
2026-04-28 19:20 48.35625 15.49341 6510 ft 115 kts 63°
2026-04-28 19:20 48.35967 15.50435 6510 ft 116 kts 63°
2026-04-28 19:20 48.36307 15.51537 6518 ft 116 kts 63°
2026-04-28 19:20 48.36653 15.52659 6430 ft 121 kts 64°
2026-04-28 19:21 48.37017 15.53827 6306 ft 125 kts 63°
2026-04-28 19:21 48.37392 15.55022 6190 ft 126 kts 64°
2026-04-28 19:21 48.37766 15.56213 6005 ft 126 kts 63°
2026-04-28 19:21 48.38144 15.57396 5827 ft 126 kts 63°
2026-04-28 19:22 48.38526 15.58579 5645 ft 125 kts 63°
2026-04-28 19:22 48.38782 15.59368 5479 ft 128 kts 64°
2026-04-28 19:22 48.39310 15.60963 5145 ft 129 kts 63°
2026-04-28 19:22 48.39716 15.62162 4907 ft 128 kts 63°
2026-04-28 19:23 48.39993 15.63410 4651 ft 128 kts 94°
2026-04-28 19:23 48.39513 15.64478 4404 ft 130 kts 150°
2026-04-28 19:23 48.38627 15.64433 4162 ft 136 kts 208°
2026-04-28 19:23 48.38126 15.63272 3924 ft 138 kts 265°
2026-04-28 19:24 48.38458 15.61973 3686 ft 137 kts 322°
2026-04-28 19:24 48.39321 15.61638 3453 ft 129 kts 18°
2026-04-28 19:24 48.39945 15.62483 3215 ft 123 kts 65°
2026-04-28 19:24 48.40331 15.63636 2971 ft 124 kts 66°
2026-04-28 19:25 48.40562 15.64870 2728 ft 123 kts 84°
2026-04-28 19:25 48.40608 15.66127 2521 ft 120 kts 88°
2026-04-28 19:25 48.40640 15.67341 2512 ft 113 kts 88°
2026-04-28 19:25 48.40673 15.68513 2505 ft 111 kts 88°
2026-04-28 19:26 48.40705 15.69658 2499 ft 109 kts 88°
2026-04-28 19:26 48.40736 15.70789 2492 ft 108 kts 88°
2026-04-28 19:26 48.40768 15.71910 2490 ft 107 kts 88°
2026-04-28 19:26 48.40798 15.73023 2491 ft 106 kts 89°
2026-04-28 19:27 48.40801 15.74132 2494 ft 106 kts 90°
2026-04-28 19:27 48.40802 15.75243 2490 ft 106 kts 90°
2026-04-28 19:27 48.40808 15.76347 2496 ft 106 kts 90°
2026-04-28 19:27 48.40761 15.77432 2498 ft 107 kts 97°
2026-04-28 19:28 48.40678 15.78555 2494 ft 108 kts 95°
2026-04-28 19:28 48.40606 15.79666 2496 ft 106 kts 95°
2026-04-28 19:28 48.40540 15.80772 2500 ft 106 kts 95°
2026-04-28 19:28 48.40474 15.81885 2498 ft 107 kts 94°
2026-04-28 19:29 48.40410 15.82992 2500 ft 106 kts 94°
2026-04-28 19:29 48.40368 15.83721 2503 ft 106 kts 94°
2026-04-28 19:29 48.40284 15.85190 2493 ft 105 kts 94°
2026-04-28 19:29 48.40223 15.86260 2496 ft 104 kts 94°
2026-04-28 19:30 48.40160 15.87345 2494 ft 105 kts 94°
2026-04-28 19:30 48.40097 15.88445 2493 ft 106 kts 94°
2026-04-28 19:30 48.40033 15.89552 2496 ft 106 kts 94°
2026-04-28 19:30 48.39969 15.90652 2495 ft 105 kts 94°
2026-04-28 19:31 48.39907 15.91738 2502 ft 104 kts 94°
2026-04-28 19:31 48.39844 15.92817 2490 ft 104 kts 94°
2026-04-28 19:31 48.39781 15.93909 2495 ft 105 kts 94°
2026-04-28 19:31 48.39717 15.95007 2498 ft 106 kts 94°
2026-04-28 19:32 48.39653 15.96108 2498 ft 105 kts 94°
2026-04-28 19:32 48.39590 15.97184 2499 ft 105 kts 94°
2026-04-28 19:32 48.39526 15.98283 2499 ft 106 kts 94°
2026-04-28 19:32 48.39461 15.99389 2504 ft 106 kts 94°
2026-04-28 19:33 48.39396 16.00491 2501 ft 105 kts 94°
2026-04-28 19:33 48.39332 16.01586 2498 ft 105 kts 94°
2026-04-28 19:33 48.39267 16.02679 2497 ft 106 kts 94°
2026-04-28 19:33 48.39202 16.03784 2500 ft 106 kts 93°
2026-04-28 19:34 48.39137 16.04890 2498 ft 106 kts 94°
2026-04-28 19:34 48.39072 16.05983 2499 ft 105 kts 94°
2026-04-28 19:34 48.39009 16.07058 2497 ft 104 kts 93°
2026-04-28 19:34 48.38944 16.08148 2498 ft 105 kts 93°
2026-04-28 19:35 48.38880 16.09236 2494 ft 105 kts 93°
2026-04-28 19:35 48.38814 16.10330 2497 ft 105 kts 93°
2026-04-28 19:35 48.38749 16.11425 2499 ft 106 kts 93°
2026-04-28 19:35 48.38683 16.12530 2501 ft 106 kts 94°
2026-04-28 19:36 48.38617 16.13641 2502 ft 107 kts 94°
2026-04-28 19:36 48.38549 16.14755 2503 ft 107 kts 93°
2026-04-28 19:36 48.38482 16.15877 2501 ft 107 kts 94°
2026-04-28 19:36 48.38416 16.16972 2503 ft 106 kts 93°
2026-04-28 19:37 48.38316 16.18061 2500 ft 105 kts 101°
2026-04-28 19:37 48.38245 16.18792 2498 ft 105 kts 94°
2026-04-28 19:37 48.38151 16.20209 2507 ft 106 kts 94°
2026-04-28 19:37 48.38068 16.21313 2502 ft 106 kts 95°
2026-04-28 19:38 48.37992 16.22409 2503 ft 105 kts 94°
2026-04-28 19:38 48.37918 16.23505 2504 ft 106 kts 94°
2026-04-28 19:38 48.37842 16.24612 2503 ft 107 kts 94°
2026-04-28 19:38 48.37544 16.25636 2509 ft 110 kts 119°
2026-04-28 19:39 48.37138 16.26591 2508 ft 110 kts 118°
2026-04-28 19:39 48.36697 16.27576 2512 ft 118 kts 123°
2026-04-28 19:39 48.36193 16.28569 2508 ft 121 kts 123°
2026-04-28 19:39 48.35675 16.29560 2512 ft 121 kts 130°
2026-04-28 19:40 48.35004 16.30363 2511 ft 124 kts 140°
2026-04-28 19:40 48.34196 16.30886 2509 ft 129 kts 159°
2026-04-28 19:40 48.33358 16.31325 2511 ft 127 kts 154°
2026-04-28 19:40 48.32536 16.31820 2509 ft 127 kts 152°
2026-04-28 19:41 48.31740 16.32381 2485 ft 128 kts 150°
2026-04-28 19:41 48.30936 16.32990 2412 ft 130 kts 148°
2026-04-28 19:41 48.30147 16.33639 2337 ft 131 kts 146°
2026-04-28 19:41 48.29347 16.34308 2264 ft 132 kts 146°
2026-04-28 19:42 48.28541 16.34976 2189 ft 132 kts 146°
2026-04-28 19:42 48.27735 16.35645 2115 ft 132 kts 146°
2026-04-28 19:42 48.26928 16.36311 2047 ft 133 kts 146°
2026-04-28 19:42 48.26387 16.36749 1991 ft 134 kts 146°
2026-04-28 19:43 48.25312 16.37667 1884 ft 131 kts 137°
2026-04-28 19:43 48.24612 16.38491 1812 ft 130 kts 136°
2026-04-28 19:43 48.23939 16.39293 1806 ft 126 kts 136°
2026-04-28 19:43 48.23254 16.40110 1803 ft 125 kts 136°
2026-04-28 19:44 48.22574 16.40924 1805 ft 125 kts 136°
2026-04-28 19:44 48.21895 16.41742 1801 ft 125 kts 135°
2026-04-28 19:44 48.21265 16.42623 1803 ft 124 kts 131°
2026-04-28 19:44 48.20644 16.43513 1800 ft 124 kts 131°
2026-04-28 19:45 48.20022 16.44403 1799 ft 122 kts 131°
2026-04-28 19:45 48.19417 16.45270 1757 ft 120 kts 129°
2026-04-28 19:45 48.18849 16.46195 1677 ft 121 kts 127°
2026-04-28 19:45 48.18287 16.47136 1598 ft 122 kts 127°
2026-04-28 19:46 48.17728 16.48069 1515 ft 122 kts 128°
2026-04-28 19:46 48.17176 16.49016 1505 ft 119 kts 127°
2026-04-28 19:46 48.16643 16.49948 1500 ft 116 kts 124°
2026-04-28 19:46 48.16144 16.50896 1496 ft 117 kts 124°
2026-04-28 19:47 48.15655 16.51833 1493 ft 118 kts 124°
2026-04-28 19:47 48.15143 16.52805 1496 ft 120 kts 124°
2026-04-28 19:47 48.14626 16.53782 1502 ft 120 kts 124°
2026-04-28 19:47 48.14113 16.54767 1496 ft 120 kts 124°
2026-04-28 19:48 48.13592 16.55736 1501 ft 118 kts 125°
2026-04-28 19:48 48.12979 16.56554 1502 ft 120 kts 141°
2026-04-28 19:48 48.12281 16.57219 1502 ft 123 kts 144°
2026-04-28 19:48 48.11472 16.57750 1508 ft 131 kts 166°
2026-04-28 19:49 48.10561 16.57696 1511 ft 137 kts 197°
2026-04-28 19:49 48.09668 16.57151 1506 ft 139 kts 201°